Other Public Products
Issued by NWS Grand Forks, ND

Home | Current Version | Previous Version | Text Only | Print | Product List | Glossary Off
Versions: 1 2 3 4 5 6 7 8 9 10 11 12 13 14 15 16 17 18 19 20 21 22 23 24 25 26 27 28 29 30 31 32 33 34 35 36 37 38 39 40 41 42 43 44 45 46 47 48 49 50

000
FPUS83 KFGF 261710
OPUFGF
PRAIRIE TO PINES WEATHER ROUNDUP
NATIONAL WEATHER SERVICE EASTERN NORTH DAKOTA/GRAND FORKS ND
1200 PM CDT MON SEP 26 2016

 **SATELLITE DATA USED TO AUGMENT SKY COVER AT AUTOMATED STATIONS**
 *****  WEATHER ACROSS EASTERN NORTH DAKOTA  *****

CITY           SKY/WX    TMP DP  RH WIND       PRES   REMARKS
GRAND FORKS    MOSUNNY   59  39  47 NW24G33   29.93S
GRAND FORKS AF SUNNY     59  37  44 NW25G31   29.94S
GRAND CITY NWS NOT AVBL
BUXTON         NOT AVBL
DEVILS LAKE    SUNNY     57  36  45 NW26G33   30.02F
FARGO          SUNNY     62  35  36 NW25G32   29.97F
WAHPETON ARPT  SUNNY     61  30  31 NW28G38   30.00F
$$

 *****  WEATHER ACROSS CENTRAL AND WESTERN NORTH DAKOTA  *****

CITY           SKY/WX    TMP DP  RH WIND       PRES   REMARKS
JAMESTOWN      SUNNY     61  39  44 NW23G35   30.06F
BISMARCK       SUNNY     63  34  33 NW18G28   30.16F
MINOT          SUNNY     62  35  36 W20       30.12F
MINOT AFB      SUNNY     60  36  40 NW20      30.11F
GARRISON         N/A     61  36  39 NW16G23   30.15F
WILLISTON      SUNNY     60  42  51 S6        30.21F
DICKINSON      SUNNY     61  33  35 NW12G21   30.20F
HETTINGER      SUNNY     63  38  39 NW14      30.23S
$$

 *****  OTHER OBSERVATIONS NORTHEAST NORTH DAKOTA  *****

CITY           SKY/WX    TMP DP  RH WIND       PRES   REMARKS
WALHALLA       FAIR      55  52  88 NW22G33   29.94S
LANGDON        FAIR      55  39  54 NW26G36   29.98R
CAVALIER       FAIR      57  39  51 NW22G32   29.93R
GRAFTON        FAIR      57  41  54 NW25G32   29.94S
CANDO          FAIR      59  30  33 NW24G39   30.05F
FORT TOTTEN      N/A     58  40  50 NW10      29.95
ROLLA          FAIR      55  28  35 NW24G36   30.03S
RUGBY          FAIR      57  37  47 NW21G30   30.07S
 ***** THE ABOVE OBSERVATIONS ARE NON NWS ARE NOT QUALITY
        CONTROLLED AND MAY MIS-REPORT RAIN FOR SNOW...
$$

 *****  OTHER OBSERVATIONS SOUTHEAST NORTH DAKOTA *****

CITY           SKY/WX    TMP DP  RH WIND       PRES   REMARKS
COOPERSTOWN    FAIR      59  36  41 NW28G36   30.02F
VALLEY CITY    FAIR      59  36  41 NW29G37   30.06S
OAKES          NOT AVBL
GWINNER        FAIR      64  37  36 NW21      30.06F
SHEYENNE NWR     N/A     63  34  34 NW18      29.95S
BUFFALO        NOT AVBL
WYNDMERE       NOT AVBL
 ***** THE ABOVE OBSERVATIONS ARE NON NWS ARE NOT QUALITY
       CONTROLLED AND MAY MIS-REPORT RAIN FOR SNOW...
$$

  *****  WEATHER ACROSS NORTHERN MINNESOTA  *****

CITY           SKY/WX    TMP DP  RH WIND       PRES   REMARKS
FLAG ISLAND    CLOUDY    52  46  82 NW28G37   29.72R
WARROAD        CLOUDY    54  46  76 NW18G26   29.78R
ROSEAU         PTSUNNY   55  46  71 NW20G28   29.80S
HALLOCK        MOSUNNY   57  43  58 NW23G32   29.89S
THF RVR FALLS  PTSUNNY   55  41  59 NW20G31   29.90R
HALSTAD          N/A     59  41  51 NW25        N/A
FOSSTON        SUNNY     55  37  50 W22G36    29.89S
BAUDETTE       CLOUDY    51  43  74 W21G33    29.74R
WASKISH        CLOUDY    54  43  66 W23G31    29.77S
CROOKSTON      SUNNY     57  41  54 NW25G36   29.92S
$$
  *****  WEATHER ACROSS CENTRAL AND WEST MINNESOTA  *****

CITY           SKY/WX    TMP DP  RH WIND       PRES   REMARKS
BEMIDJI        PTSUNNY   55  40  56 NW22G30   29.84S
PARK RAPIDS    SUNNY     58  38  47 NW26G36   29.88S
WADENA         NOT AVBL
DETROIT LAKES  SUNNY     55  37  50 NW24G33   29.95R
MOORHEAD       SUNNY     61  34  36 NW24G32   29.97F
FERGUS FALLS   SUNNY     59  39  47 NW23G32   30.00S
ELBOW LAKE     FAIR      58  37  45 NW20G29   30.00F
MORRIS MN      SUNNY     63  36  36 W29G38    30.00F
STAPLES        MOSUNNY   57  36  44 NW22G36   29.90F
WHEATON        NOT AVBL
$$
  *****  WEATHER ELSEWHERE ACROSS MINNESOTA  *****

CITY           SKY/WX    TMP DP  RH WIND       PRES   REMARKS
DULUTH         LGT RAIN  50  46  86 W22G32    29.71S
INTRNTL FALLS  LGT RAIN  49  46  90 W16G25    29.66S
ELY            CLOUDY    46  46 100 W22G30    29.61S FOG
CLOQUET        CLOUDY    54  41  62 W26G35    29.74F
BRAINERD       PTSUNNY   55  39  54 W14G28    29.87F
HIBBING        LGT RAIN  47  44  90 W18G25    29.72S
ALEXANDRIA     SUNNY     59  38  45 NW23G38   29.98F
SAINT CLOUD    MOSUNNY   59  39  47 W28G35    29.92F
MINNEAPOLIS    MOSUNNY   60  39  45 NW23G37   29.92S
$$

  *****  WEATHER ACROSS SOUTH DAKOTA  *****

CITY           SKY/WX    TMP DP  RH WIND       PRES   REMARKS
SIOUX FALLS    SUNNY     64  40  41 W15G24    30.14F
BROOKINGS      SUNNY     62  33  33 NW23G32   30.11F
WATERTOWN      SUNNY     62  35  36 NW18G30   30.10F
HURON          SUNNY     67  34  29 NW17G24   30.15F
SISSETON         N/A     65  34  31 NW18G28   30.04F
ABERDEEN       SUNNY     65  33  30 W18G24    30.12F
MITCHELL       SUNNY     68  39  34 NW9       30.17F
PIERRE         SUNNY     64  41  42 W9        30.20S
MOBRIDGE       SUNNY     65  36  34 NW15      30.15F
RAPID CITY     SUNNY     69  41  36 N15       30.27F
$$

  *****  SOME WEATHER IN NEARBY STATES *****

CITY           SKY/WX    TMP DP  RH WIND       PRES   REMARKS
GLASGOW MT     SUNNY     55  40  56 W3        30.25S
GREAT FALLS MT SUNNY     65  44  46 SW15      30.27F
CHEYENNE WY    SUNNY     65  33  30 N12       30.44S
SCOTTSBLUFF NE SUNNY     63  42  46 NW8       30.38R
OMAHA NE       SUNNY     70  40  33 W18       30.21F
DES MOINES IA  MOSUNNY   69  39  33 NW14      30.14F
DAVENPORT IA   SUNNY     68  33  27 W17G28    30.06F
CHICAGO IL     MOSUNNY   67  37  33 W20G36    29.97F
EAU CLAIRE WI  MOSUNNY   60  39  45 W21G37    29.83F
LA CROSSE WI   SUNNY     66  38  35 W21G31    29.92F
$$

  *****  SOME NATIONAL WEATHER *****

CITY           SKY/WX    TMP DP  RH WIND       PRES   REMARKS
LA GUARDIA NY  PTSUNNY   70  48  45 S13       30.14F
RALEIGH NC     PTSUNNY   71  64  78 S5        30.13F
ATLANTA GA     MOSUNNY   85  64  49 SE7       30.09F
NEW ORLEANS LA MOSUNNY   90  74  59 NE6       30.02F HX  99
OKLAHOMA CITY  PTSUNNY   71  40  32 NE16G25   30.29F
ALBUQUERQUE NM MOSUNNY   63  34  33 VRB5      30.46F
SALT LAKE CITY SUNNY     63  43  48 VRB3      30.42S
LOS ANGELES CA MOSUNNY   94  26   9 NE8       29.95S
BOISE ID       SUNNY     69  39  33 S9        30.34S
SEATTLE WA     MOSUNNY   63  54  72 N3        30.11F
$$

*** WEATHER ACROSS MANITOBA...SASKATCHEWAN AND ONTARIO ***
                ***ONTARIO***

CITY           SKY/WX    TMP DP  RH WIND       PRES   REMARKS
GERALDTON      MOSUNNY   57  50  77 S9        29.42F
THUNDER BAY    LGT RAIN  55  50  82 W16G24    29.43S
SIOUX LOOKOUT  LGT RAIN  50  48  93 NW17G25   29.47S FOG
TORONTO        SHOWER    61  59  94 SE6       29.85F FOG
BIG TROUT LK   CLOUDY    55  55 100 SE5       29.44S
PICKLE LAKE    DRIZZLE   52  52 100 NW7       29.38S FOG
DRYDEN         LGT RAIN  48  48 100 NW12G20   29.53F
KENORA         LGT RAIN  48  48 100 NW13G28   29.66R FOG
$$
                *** MANITOBA***

CITY           SKY/WX    TMP DP  RH WIND       PRES   REMARKS
BRANDON        SUNNY     57  36  44 NW23G30   30.02S
DAUPHIN        SUNNY     57  41  54 W12       30.00S
ISLAND LAKE    LGT RAIN  50  48  93 N13G28    29.65R
PILOT MOUND      N/A     54  37  54 NW23G30     N/A
THE PAS        MOSUNNY   52  41  66 NW14      29.99R
THOMPSON       CLOUDY    52  46  82 NW13G25   29.83R
WINNIPEG       PTSUNNY   55  46  71 NW26G32   29.87R
LYNN LAKE      CLOUDY    46  39  76 NW12G22   29.97R
CHURCHILL      CLOUDY    45  43  93 N26G32    29.70R
GILLAM         LGT RAIN  48  45  87 N22G35    29.69R
$$
                ***SASKATCHEWAN***

CITY           SKY/WX    TMP DP  RH WIND       PRES   REMARKS
ESTEVAN        MOSUNNY   59  37  44 NW13G20   30.18R
KINDERSLEY     PTSUNNY   57  37  47 S3        30.17F
LLOYDMINSTER   NOT AVBL
PRINCE ALBERT  MOSUNNY   54  37  54 W6        30.14S
REGINA         MOSUNNY   57  37  47 NW8       30.18F
YORKTON        SUNNY     55  36  47 NW17G26   30.09S  C1F1C2F2C3F3C4F4C5F5C6F6C7F7C8F8C9F9CaFaCbFbCcFcCdFdCe!



USA.gov is the U.S. government's official web portal to all federal, state and local government web resources and services.